Flag for Dominica Weather past 2 weeks in Roseau, Dominica

Now
84 °F

Passing clouds.


Feels Like: 91 °F
Forecast: 79 / 86 °F
Wind: 3 mph from Northwest

Location: Canefield Airport

Current Time: Apr 28, 2015 at 10:59:44 AM

Latest Report: Apr 28, 2015 at 10:00 AM


Visibility: N/A

Pressure: 29.98 "Hg

Humidity: 70%

Dew point: 73 °F

Location of RoseauLocation

Historic Weather in Roseau — Graph

°F

Roseau temperature yesterday

Maximum temperature yesterday: 91 °F (at 12:00 PM)
Minimum temperature yesterday: 73 °F (at 6:00 AM)
Average temperature yesterday: 86 °F

Past Weeks' High & Low Weather Summary

 TemperatureHumidityPressure
High93 °F (Apr 26, 2:00 PM)89% (Apr 15, 7:00 AM)30.07 "Hg (Apr 15, 7:00 AM)
Low72 °F (Apr 21, 6:00 AM)41% (Apr 23, 2:00 PM)29.86 "Hg (Apr 27, 4:00 PM)
Average83 °F62%29.96 "Hg
* Reported Apr 13 10:00 AM — Apr 28 10:00 AM, Roseau, Weather by CustomWeather, © 2015

Note: Actual official high and low records may vary slightly from our data, if they occured in-between our weather recording intervals... More about our weather records

Advertising

Roseau weather history for previous 24 hours

 ConditionsComfort  
Time TempWeatherWind HumidityBarometerVisibility
10:00 AM
Tue, Apr 28
84 °FPassing clouds.3 mph70%29.98 "HgN/A
9:00 AM84 °FPassing clouds.6 mph66%29.98 "HgN/A
8:00 AM84 °FPassing clouds.2 mph62%29.98 "HgN/A
7:00 AM77 °FPassing clouds.2 mph74%29.95 "HgN/A
6:00 AM73 °FPassing clouds.3 mph83%29.92 "HgN/A
8:00 PM
Mon, Apr 27
81 °FPassing clouds.3 mph62%29.92 "HgN/A
7:00 PM81 °FPassing clouds.3 mph58%29.89 "HgN/A
6:00 PM84 °FPassing clouds.3 mph58%29.86 "HgN/A
5:00 PM88 °FPassing clouds.6 mph52%29.86 "HgN/A
4:00 PM90 °FPassing clouds.8 mph49%29.86 "HgN/A
3:00 PM90 °FPassing clouds.9 mph52%29.89 "HgN/A
2:00 PM91 °FPassing clouds.7 mph49%29.89 "HgN/A
1:00 PM91 °FPassing clouds.8 mph49%29.92 "HgN/A
12:00 PM91 °FPassing clouds.9 mph49%29.92 "HgN/A
11:00 AM90 °FScattered clouds.10 mph52%29.95 "HgN/A
10:00 AM90 °FScattered clouds.7 mph52%29.98 "HgN/A
Weather by CustomWeather, © 2015

See weather overviewHow to use our weather pages